Location: Worth Mountain WMA
(34.9569°N, 81.4819°W)
Time: 18:25:41
(UTC-04:00)

Cosmos 1420 Rocket - Pass Details

Date: 18 August 2017
Orbit: 754 x 782 km, 74.0° (Epoch: 22 September)

Event Time Altitude Azimuth Distance (km) Brightness Sun altitude
Rises 20:58:54 0° 185° (S) 3,193 7.0 -10.2°
Reaches altitude 10° 21:01:17 10° 181° (S) 2,271 6.2 -10.6°
Maximum altitude 21:06:19 57° 104° (ESE) 889 4.0 -11.6°
Drops below altitude 10° 21:11:22 10° 26° (NNE) 2,285 6.5 -12.5°
Sets 21:13:46 0° 23° (NNE) 3,215 7.3 -13.0°
